Home > Weather > Kiel > Past weeks

Flag for Germany Past Weather in Kiel, Schleswig-Holstein, Germany — Yesterday and Last 2 Weeks

Now
63 °F

Fog.


Feels Like: 63 °F
Forecast: 55 / 70 °F
Wind: 3 mph from West

Location: Hohn

Current Time: Jul 25, 2016 at 4:29:32 AM

Latest Report: Jul 25, 2016 at 3:20 AM


Visibility: 0 mi

Pressure: 30.07 "Hg

Humidity: 94%

Dew Point: 61 °F

Location of KielLocation

Past Weather in Kiel — Graph

°F

Kiel Temperature Yesterday

Maximum temperature yesterday: 84 °F (at 4:20 PM)
Minimum temperature yesterday: 59 °F (at 3:20 AM)
Average temperature yesterday: 71 °F

High & Low Weather Summary for the Past Weeks

 TemperatureHumidityPressure
High84 °F (Jul 24, 4:20 PM)100% (Jul 11, 12:04 AM)30.18 "Hg (Jul 11, 12:04 AM)
Low46 °F (Jul 14, 4:20 AM)37% (Jul 24, 4:20 PM)29.65 "Hg (Jul 11, 4:20 AM)
Average65 °F81%29.99 "Hg
* Reported Jul 10 2:20 AM — Jul 25 2:20 AM, Kiel, Weather by CustomWeather, © 2016

Note: Actual official high and low records may vary slightly from our data, if they occured in-between our weather recording intervals... More about our weather records

Advertising

Kiel Weather History for the Previous 24 Hours

Scroll right to see more
 ConditionsComfort  
Time TempWeatherWind HumidityBarometerVisibility
2:20 AM
Mon, Jul 25
63 °FPassing clouds.3 mph94%30.07 "HgN/A
1:20 AM63 °FPassing clouds.2 mph100%30.07 "HgN/A
12:20 AM64 °FPassing clouds.2 mph94%30.07 "HgN/A
11:20 PM
Sun, Jul 24
66 °FPassing clouds.3 mph94%30.07 "HgN/A
10:20 PM68 °FPartly sunny.6 mph88%30.07 "HgN/A
9:20 PM72 °FPartly sunny.7 mph83%30.07 "HgN/A
8:20 PM77 °FScattered clouds.5 mph65%30.07 "HgN/A
7:20 PM77 °FScattered clouds.3 mph61%30.07 "HgN/A
6:20 PM77 °FScattered clouds.8 mph65%30.07 "HgN/A
5:20 PM81 °FScattered clouds.10 mph54%30.07 "HgN/A
4:20 PM84 °FPassing clouds.3 mph37%30.07 "HgN/A
3:20 PM82 °FScattered clouds.3 mph42%30.07 "HgN/A
2:20 PM82 °FPassing clouds.5 mph45%30.09 "HgN/A
1:20 PM81 °FPassing clouds.3 mph39%30.09 "HgN/A
12:20 PM79 °FPassing clouds.6 mph51%30.09 "HgN/A
11:20 AM77 °FPassing clouds.5 mph57%30.09 "HgN/A
10:20 AM75 °FPassing clouds.5 mph65%30.09 "HgN/A
9:20 AM72 °FScattered clouds.6 mph73%30.09 "HgN/A
8:20 AM68 °FScattered clouds.6 mph83%30.09 "HgN/A
7:20 AM61 °FScattered clouds.3 mph94%30.09 "HgN/A
6:20 AM59 °FPassing clouds.3 mph100%30.09 "HgN/A
5:20 AM59 °FFog.2 mph94%30.09 "HgN/A
4:20 AM59 °FFog.3 mph94%30.09 "HgN/A
Weather by CustomWeather, © 2016

See weather overviewHow to use our weather pages